Regional Weather Roundup
Issued by NWS

Home | Current Version | Previous Version | Graphics & Text | Print | Product List | Glossary On
Versions: 1 2 3 4 5 6 7 8 9 10 11 12 13 14 15 16 17 18 19 20 21 22 23 24 25 26 27 28 29 30 31 32 33 34 35 36 37 38 39 40 41 42 43 44 45 46 47 48 49 50
000
ASUS43 KFSD 270602
RWRSD

WEATHER ROUNDUP FOR SOUTH DAKOTA
NATIONAL WEATHER SERVICE SIOUX FALLS SD
1200 AM CST SAT DEC 27 2014

NOTE: "FAIR" INDICATES FEW OR NO CLOUDS BELOW 12,000 FEET WITH NO
SIGNIFICANT WEATHER AND/OR OBSTRUCTIONS TO VISIBILITY.


SDZ001>005-009-010-012>017-270700-
NORTHWEST AND NORTH CENTRAL SOUTH DAKOTA

CITY           SKY/WX    TMP DP  RH WIND       PRES   REMARKS
BUFFALO          N/A     10   6  84 W7        30.03S WCI  -1
FAITH            N/A     10   5  80 W10       30.13F WCI  -4
MOBRIDGE       PTCLDY     1  -3  83 CALM      30.15S
$$

SDZ012>016-024>037-041>051-057-063-072>074-270700-
SOUTHWEST AND SOUTH CENTRAL SOUTH DAKOTA

CITY           SKY/WX    TMP DP  RH WIND       PRES   REMARKS
RAPID CTY ARPT MOCLDY     6   3  87 N3        30.13R
PIERRE         MOCLDY     9   5  84 NW3       30.19S
CUSTER         PTCLDY     6   2  83 W8        29.97S WCI  -7
PHILIP         MOCLDY     8   3  80 W10       30.18S WCI  -6
PINE RIDGE     CLOUDY    16  12  84 SW3       30.13S
WINNER         LGT SNOW  17  13  84 NW7       30.17S FOG     WCI   8
$$

SDZ004>011-016>023-039-040-270700-
NORTHEAST SOUTH DAKOTA

CITY           SKY/WX    TMP DP  RH WIND       PRES   REMARKS
ABERDEEN       CLOUDY    10   6  84 N7        30.21S WCI  -1
WATERTOWN      CLOUDY    18  15  88 N15       30.11R WCI   4
SISSETON         N/A     10   6  84 N14       30.18R WCI  -6
$$

SDZ017-020-022-023-036>040-048>070-270700-
SOUTHEAST SOUTH DAKOTA

CITY           SKY/WX    TMP DP  RH WIND       PRES   REMARKS
SIOUX FALLS    LGT SNOW  22  20  92 N12       30.08S VSB 1   WCI  10
HURON          CLOUDY    16  12  84 N14       30.19R WCI   2
MITCHELL       LGT SNOW  20  17  88 N14       30.17R FOG     WCI   7
YANKTON        MOCLDY    21  19  93 NW14      30.14S WCI   8
$$

ABBREVIATIONS USED IN REMARKS
   TC - TEMPERATURE IN CELSIUS
  WCI - WIND CHILL INDEX
   HX - HEAT INDEX
  VSB - VISIBILITY



USA.gov is the U.S. government's official web portal to all federal, state and local government web resources and services.